sat.trackr.live / text

‹ back to catalog

STARLINK-4586

NORAD 53636 · 2022-104BA

PAYLOAD ACTIVE UNKNOWN

§ Identity

Operator
Country
US
Launch date
2022-08-28
Launch site
AFETR
Launch vehicle
Mass (kg)
RCS (m²)

Purposes: comms

External: N2YO · Heavens-Above · Gunter

§ Orbital elements

Epoch: 2026-05-24T15:21:41.683392Z

Period
95.43 min
Inclination
53.2138°
Eccentricity
0.0001127
Mean motion
15.08892035 rev/d
Perigee alt
538.8 km
Apogee alt
540.4 km
Semi-major
6,917.7 km
B*
1.5219e-3
RAAN
242.9946°
Arg perigee
88.6433°
Mean anomaly
271.4689°
Rev number
20,769

§ Raw data

STARLINK-45861 53636U 22104BA  26144.64006578  .00024050  00000+0  15219-2 0  99952 53636  53.2138 242.9946 0001127  88.6433 271.4689 15.08892035207698

JSON: /api/v1/satellites/53636 · /tle

For live sub-satellite position, see the globe view (requires WebGL).

§ Visibility from observer

Set your observer location to see the next 7 days of passes ≥ 10°. The values pass through the URL so the page stays shareable.

No JS? Fill the form by hand. The geolocation button needs JavaScript.